Weather History for Twin Falls, ID

Change the Weather History Date:

Wednesday, December 12, 2012

  Actual Average Record
Temperature  
Mean Temperature 38 °F -  
Max Temperature 44 °F 37 °F 62 °F (2010)
Min Temperature 31 °F 19 °F -8 °F (1985)
Degree Days  
Heating Degree Days 27 37  
Month to date heating degree days 292 427  
Since 1 July heating degree days 1346 1865  
Cooling Degree Days 0 0  
Month to date cooling degree days 0 0  
Year to date cooling degree days 970 680  
Moisture  
Dew Point 30 °F    
Average Humidity 69    
Maximum Humidity 82    
Minimum Humidity 55    
Precipitation  
Precipitation T in 0.04 in 0.23 in (2006)
Month to date precipitation 1.45 0.47  
Year to date precipitation 9.79 9.90  
Sea Level Pressure  
Sea Level Pressure 29.70 in    
Wind  
Wind Speed 6 mph (SSE)    
Max Wind Speed 17 mph    
Max Gust Speed 21 mph    
Visibility 10 miles    
Events Rain    
T = Trace of Precipitation, MM = Missing Value Source: NWS Daily Summary

Daily Weather History Graph

Daily Weather History Graph

Search for Another Location

Airport:

Trip Planner

Search our weather history database for the weather conditions in past years. The results will help you decide how hot, cold, wet, or windy it might be!

Date:

Astronomy

Dec. 12, 2012 Rise Set
Actual Time 7:58 AM MST 5:05 PM MST
Civil Twilight 7:26 AM MST 5:37 PM MST
Nautical Twilight 6:51 AM MST 6:12 PM MST
Astronomical Twilight 6:17 AM MST 6:46 PM MST
Moon 7:07 AM MST (12/12) 4:46 PM MST (12/12)
Length of Visible Light 10h 10m
Length of Day
9h 06m
Waning Crescent, 0% of the Moon is Illuminated
Dec 12
Waning Crescent
Dec 13
New
Dec 19
First Quarter
Dec 28
Full
Jan 4
Last Quarter

Hourly Weather History & Observations

Time (MST) Temp. Windchill Dew Point Humidity Pressure Visibility Wind Dir Wind Speed Gust Speed Precip Events Conditions
12:53 AM 39.0 °F 34.8 °F 28.9 °F 67% 29.57 in 10.0 mi SE 5.8 mph - N/A   Scattered Clouds
1:53 AM 37.9 °F 31.5 °F 28.0 °F 68% 29.57 in 10.0 mi ESE 9.2 mph - N/A   Mostly Cloudy
2:53 AM 36.0 °F 28.5 °F 28.0 °F 73% 29.56 in 10.0 mi SE 10.4 mph - N/A   Clear
3:53 AM 37.0 °F - 28.0 °F 70% 29.54 in 10.0 mi Calm Calm - N/A   Partly Cloudy
4:53 AM 41.0 °F 34.3 °F 26.1 °F 55% 29.56 in 10.0 mi SSW 11.5 mph - N/A   Overcast
5:53 AM 41.0 °F 34.3 °F 27.0 °F 57% 29.59 in 10.0 mi WSW 11.5 mph - N/A   Overcast
6:53 AM 39.0 °F 34.8 °F 28.9 °F 67% 29.61 in 10.0 mi SW 5.8 mph - N/A   Overcast
7:53 AM 39.0 °F 32.3 °F 30.0 °F 70% 29.63 in 10.0 mi SW 10.4 mph - 0.00 in   Overcast
8:53 AM 37.0 °F 31.6 °F 28.9 °F 73% 29.66 in 10.0 mi SW 6.9 mph - N/A   Mostly Cloudy
9:53 AM 39.0 °F 34.8 °F 30.0 °F 70% 29.69 in 10.0 mi SW 5.8 mph - N/A   Overcast
10:53 AM 42.1 °F 37.7 °F 30.0 °F 62% 29.71 in 10.0 mi SW 6.9 mph - N/A   Mostly Cloudy
11:53 AM 44.1 °F 39.0 °F 30.9 °F 60% 29.71 in 10.0 mi West 9.2 mph - N/A   Overcast
12:53 PM 43.0 °F 39.5 °F 30.9 °F 62% 29.71 in 10.0 mi NNW 5.8 mph - N/A   Overcast
1:53 PM 42.1 °F 37.7 °F 30.9 °F 65% 29.72 in 10.0 mi NNW 6.9 mph - N/A   Mostly Cloudy
2:53 PM 42.1 °F 38.4 °F 32.0 °F 67% 29.74 in 10.0 mi NW 5.8 mph - N/A   Mostly Cloudy
3:53 PM 41.0 °F 39.0 °F 32.0 °F 70% 29.75 in 10.0 mi NNE 3.5 mph - N/A   Partly Cloudy
4:53 PM 37.0 °F 34.5 °F 30.0 °F 76% 29.75 in 10.0 mi East 3.5 mph - N/A   Clear
5:53 PM 33.1 °F - 28.9 °F 85% 29.77 in 10.0 mi Calm Calm - N/A   Clear
6:53 PM 32.0 °F 27.5 °F 27.0 °F 82% 29.77 in 10.0 mi East 4.6 mph - N/A   Partly Cloudy
7:53 PM 37.0 °F 34.5 °F 30.9 °F 79% 29.77 in 10.0 mi NE 3.5 mph - N/A   Overcast
8:53 PM 36.0 °F 32.1 °F 30.9 °F 82% 29.77 in 10.0 mi East 4.6 mph - N/A   Overcast
9:53 PM 37.0 °F 32.4 °F 30.9 °F 79% 29.78 in 9.0 mi ESE 5.8 mph - N/A   Overcast
10:05 PM 37.4 °F 32.8 °F 30.2 °F 75% 29.80 in 8.0 mi ESE 5.8 mph - 0.00 in Rain Light Rain
10:30 PM 39.2 °F - 30.2 °F 70% 29.80 in 10.0 mi Calm Calm - 0.00 in Rain Light Rain
10:53 PM 37.0 °F - 30.9 °F 79% 29.77 in 10.0 mi Calm Calm - 0.00 in   Overcast
11:53 PM 36.0 °F - 32.0 °F 86% 29.79 in 10.0 mi Calm Calm - 0.00 in Rain Light Rain